Location: Quedlinburg
(51.7921°N, 11.1414°E)
Time: 08:18:32
(UTC+02:00)

SO-50 - Pass Details

Date: 08 March 2026
Orbit: 567 x 673 km, 64.6° (Epoch: 13 April)

Event Time Altitude Azimuth Distance (km) Brightness Sun altitude
Exits shadow 03:08:22 32° 72° (ENE) 1,148 ? -32.4°
Drops below altitude 10° 03:11:30 10° 104° (ESE) 2,097 ? -32.0°
Sets 03:13:56 0° 112° (ESE) 2,998 ? -31.7°
